sat.trackr.live / text

‹ back to catalog

HAWK-5C

NORAD 52754 · 2022-057Y

PAYLOAD ACTIVE UNKNOWN

§ Identity

Operator
Country
US
Launch date
2022-05-25
Launch site
AFETR
Launch vehicle
Mass (kg)
RCS (m²)

Purposes: tech_demo

External: N2YO · Heavens-Above · Gunter

§ Orbital elements

Epoch: 2026-05-24T22:42:41.553792Z

Period
92.88 min
Inclination
97.6568°
Eccentricity
0.0005428
Mean motion
15.50440280 rev/d
Perigee alt
411.8 km
Apogee alt
419.1 km
Semi-major
6,793.6 km
B*
2.9644e-4
RAAN
303.1378°
Arg perigee
149.4534°
Mean anomaly
210.7034°
Rev number
22,274

§ Raw data

HAWK-5C1 52754U 22057Y   26144.94631428  .00016793  00000+0  29644-3 0  99962 52754  97.6568 303.1378 0005428 149.4534 210.7034 15.50440280222743

JSON: /api/v1/satellites/52754 · /tle

For live sub-satellite position, see the globe view (requires WebGL).

§ Visibility from observer

Set your observer location to see the next 7 days of passes ≥ 10°. The values pass through the URL so the page stays shareable.

No JS? Fill the form by hand. The geolocation button needs JavaScript.